Weather History for LEBA - July, 2013

Change the Weather History Date:

Friday, July 19, 2013

  Actual Average Record
Temperature  
Mean Temperature 84 °F -  
Max Temperature 101 °F - - ()
Min Temperature 67 °F - - ()
Cooling Degree Days 19    
Growing Degree Days 34 (Base 50)    
Moisture  
Dew Point 51 °F    
Average Humidity 32    
Maximum Humidity 68    
Minimum Humidity 10    
Precipitation  
Precipitation 0.00 in 0.01 in - ()
Sea Level Pressure  
Sea Level Pressure 29.92 in    
Wind  
Wind Speed 3 mph ()    
Max Wind Speed 12 mph    
Max Gust Speed -    
T = Trace of Precipitation, MM = Missing Value Source: Averaged Metar Reports

Daily Weather History Graph

Daily Weather History Graph

Search for Another Location

Airport or City:

Trip Planner

Search our weather history database for the weather conditions in past years. The results will help you decide how hot, cold, wet, or windy it might be!

Date:

Astronomy

Jul. 19, 2013 Rise Set
Actual Time 7:12 AM CEST 9:38 PM CEST
Civil Twilight 6:42 AM CEST 10:08 PM CEST
Nautical Twilight 6:04 AM CEST 10:46 PM CEST
Astronomical Twilight 5:23 AM CEST 11:27 PM CEST
Moon 6:26 PM CEST (7/19) 3:40 AM CEST (7/19)
Length of Visible Light 15h 26m
Length of Day
14h 26m
Waxing Gibbous, 84% of the Moon is Illuminated
Jul 19
Waxing Gibbous
Jul 22
Full
Jul 29
Last Quarter
Aug 6
New
Aug 14
First Quarter

Hourly Weather History & Observations

Time (CEST) Temp. Heat Index Dew Point Humidity Pressure Visibility Wind Dir Wind Speed Gust Speed Precip Events Conditions
2:00 AM 77 °F - 53 °F 32% 30.00 in - WNW 2.3 mph - -  
7:00 AM 68.0 °F - 57.2 °F 68% 29.98 in - Calm Calm - N/A   Clear
8:00 AM 69 °F - 56 °F 55% 29.99 in 25 mi Calm Calm - -  
8:00 AM 68.0 °F - 57.2 °F 68% 29.98 in - Calm Calm - N/A   Clear
9:00 AM 73.4 °F - 57.2 °F 57% 29.98 in - Variable 2.3 mph - N/A   Clear
10:00 AM 78.8 °F - 57.2 °F 47% 29.98 in - East 3.5 mph - N/A   Clear
11:00 AM 82.4 °F 81.7 °F 55.4 °F 39% 29.98 in - SE 1.2 mph - N/A   Clear
12:00 PM 86.0 °F - 51.8 °F 31% 29.98 in - SSW 1.2 mph - N/A   Clear
1:00 PM 89.6 °F - 50.0 °F 26% 29.95 in - Variable 2.3 mph - N/A   Clear
2:00 PM 97 °F - 46 °F 10% 29.92 in 25 mi SE 2.3 mph - -  
2:00 PM 93.2 °F - 48.2 °F 21% 29.92 in - SE 2.3 mph - N/A   Clear
3:00 PM 95.0 °F - 48.2 °F 20% 29.92 in - ESE 2.3 mph - N/A   Clear
4:00 PM 91.4 °F - 46.4 °F 21% 29.89 in - SW 8.1 mph - N/A   Clear
5:00 PM 96.8 °F - 46.4 °F 18% 29.86 in - West 6.9 mph - N/A   Clear
6:00 PM 96.8 °F - 48.2 °F 19% 29.83 in - WSW 6.9 mph - N/A   Clear
7:00 PM 96.8 °F - 42.8 °F 16% 29.83 in - Variable 4.6 mph - N/A   Clear
8:00 PM 97 °F - 48 °F 11% 29.82 in 25 mi WSW 11.5 mph - -  
8:00 PM 93.2 °F - 50.0 °F 23% 29.83 in - WSW 11.5 mph - N/A   Clear
9:00 PM 91.4 °F - 51.8 °F 26% 29.83 in - WSW 6.9 mph - N/A   Clear